Bennington, VT

10:38 PM EST on December 14, 2019 (GMT -0500)
Morse State

Weather History for KDDH - September, 2019

Change the Weather History Date:

Thursday, September 26, 2019

  Actual Average Record
Temperature  
Mean Temperature 61 °F 55 °F  
Max Temperature 73 °F 67 °F 87 °F (2017)
Min Temperature 48 °F 44 °F 31 °F (2016)
Degree Days  
Heating Degree Days 4 10  
Month to date heating degree days 155 160  
Since 1 July heating degree days 190 232  
Cooling Degree Days 0 0  
Month to date cooling degree days 21 22  
Year to date cooling degree days 372 310  
Growing Degree Days 10 (Base 50)    
Moisture  
Dew Point 51 °F    
Average Humidity 78    
Maximum Humidity 100    
Minimum Humidity 55    
Precipitation  
Precipitation 0.34 in 0.14 in 0.73 in (2005)
Month to date precipitation 2.26 3.03  
Year to date precipitation 29.73 30.57  
Sea Level Pressure  
Sea Level Pressure 29.83 in    
Wind  
Wind Speed 4 mph (SSW)    
Max Wind Speed 12 mph    
Max Gust Speed 17 mph    
Visibility 5 miles    
Events Fog , Rain    
T = Trace of Precipitation, MM = Missing Value Source: NWS Daily Summary

Daily Weather History Graph

Daily Weather History Graph

Search for Another Location

Airport or City:

Astronomy

Sep. 26, 2019 Rise Set
Actual Time 6:44 AM EDT 6:43 PM EDT
Civil Twilight 6:16 AM EDT 7:11 PM EDT
Nautical Twilight 5:43 AM EDT 7:44 PM EDT
Astronomical Twilight 5:09 AM EDT 8:18 PM EDT
Moon 3:41 AM EDT (9/26) 6:00 PM EDT (9/26)
Length of Visible Light 12h 55m
Length of Day
11h 59m
Waning Crescent, 7% of the Moon is Illuminated
Sep 26
Waning Crescent
Sep 28
New
Oct 5
First Quarter
Oct 13
Full
Oct 21
Last Quarter

Hourly Weather History & Observations

Time (EDT) Temp. Dew Point Humidity Pressure Visibility Wind Dir Wind Speed Gust Speed Precip Events Conditions
12:54 AM 50.0 °F 48.0 °F 93% 29.84 in 6.0 mi Calm Calm - N/A   Clear
1:54 AM 50.0 °F 48.0 °F 93% 29.83 in 10.0 mi Calm Calm - N/A   Clear
2:54 AM 50.0 °F 48.0 °F 93% 29.81 in 10.0 mi Calm Calm - N/A   Clear
3:54 AM 52.0 °F 50.0 °F 93% 29.81 in 10.0 mi Calm Calm - N/A   Clear
4:54 AM 52.0 °F 50.0 °F 93% 29.78 in 10.0 mi Calm Calm - N/A   Clear
5:54 AM 51.1 °F 48.9 °F 92% 29.78 in 4.0 mi Calm Calm - N/A   Clear
6:54 AM 50.0 °F 46.9 °F 89% 29.78 in 9.0 mi Calm Calm - N/A   Partly Cloudy
7:54 AM 55.9 °F 52.0 °F 87% 29.76 in 10.0 mi North 3.5 mph - N/A   Partly Cloudy
8:54 AM 62.1 °F 54.0 °F 75% 29.78 in 10.0 mi NNE 3.5 mph - N/A   Overcast
9:54 AM 68.0 °F 52.0 °F 56% 29.76 in 10.0 mi SSW 9.2 mph - N/A   Mostly Cloudy
10:54 AM 70.0 °F 54.0 °F 57% 29.72 in 10.0 mi South 4.6 mph - N/A   Scattered Clouds
11:54 AM 71.1 °F 55.0 °F 57% 29.70 in 10.0 mi South 8.1 mph - N/A   Scattered Clouds
12:54 PM 66.0 °F 57.9 °F 75% 29.78 in 10.0 mi Variable 5.8 mph - 0.04 in Rain Light Rain
1:54 PM 61.0 °F 55.9 °F 83% 29.80 in 4.0 mi West 9.2 mph - 0.06 in Rain Light Rain
2:34 PM 60.1 °F 57.0 °F 90% 29.80 in 5.0 mi SSW 4.6 mph - 0.09 in Rain Light Rain
2:54 PM 60.1 °F 57.0 °F 90% 29.81 in 4.0 mi WSW 5.8 mph - 0.13 in Rain Rain
3:08 PM 60.1 °F 57.0 °F 90% 29.80 in 4.0 mi SW 5.8 mph - 0.03 in Rain Light Rain
3:24 PM 60.1 °F 57.0 °F 90% 29.81 in 9.0 mi West 4.6 mph - 0.04 in Rain Light Rain
3:38 PM 60.1 °F 57.0 °F 90% 29.81 in 10.0 mi SW 5.8 mph - 0.04 in Rain Light Rain
3:54 PM 60.1 °F 57.0 °F 90% 29.81 in 5.0 mi SSW 6.9 mph - 0.07 in Rain Light Rain
4:54 PM 59.0 °F 54.0 °F 83% 29.78 in 10.0 mi SE 4.6 mph - 0.04 in Rain Light Rain
5:54 PM 57.9 °F 55.0 °F 90% 29.81 in 10.0 mi Calm Calm - 0.00 in   Scattered Clouds
6:47 PM 55.9 °F 54.0 °F 93% 29.81 in 2.5 mi South 3.5 mph - N/A   Clear
6:54 PM 55.9 °F 54.0 °F 93% 29.82 in 7.0 mi SSE 4.6 mph - N/A   Clear
7:01 PM 53.1 °F 53.1 °F 100% 29.81 in 1.8 mi SE 5.8 mph - N/A   Clear
7:08 PM 54.0 °F 52.0 °F 93% 29.82 in 3.0 mi ESE 3.5 mph - N/A   Clear
7:25 PM 54.0 °F 52.0 °F 93% 29.83 in 1.5 mi Calm Calm - N/A   Clear
7:30 PM 53.1 °F 51.1 °F 93% 29.84 in 0.8 mi Calm Calm - N/A   Mist
7:54 PM 51.1 °F 48.9 °F 92% 29.85 in 1.2 mi SE 3.5 mph - N/A   Partly Cloudy
7:58 PM 51.1 °F 50.0 °F 96% 29.85 in 3.0 mi SSE 3.5 mph - N/A   Partly Cloudy
8:18 PM 51.1 °F 50.0 °F 96% 29.87 in 1.8 mi Calm Calm - N/A   Clear
8:34 PM 50.0 °F 48.9 °F 96% 29.87 in 1.2 mi Calm Calm - N/A   Scattered Clouds
8:49 PM 51.8 °F 48.2 °F 88% 29.88 in 3.0 mi South 3.5 mph - N/A   Mostly Cloudy
8:54 PM 51.1 °F 48.9 °F 92% 29.88 in 7.0 mi SSE 4.6 mph - N/A   Mostly Cloudy
9:34 PM 51.1 °F 48.9 °F 92% 29.90 in 1.8 mi Variable 3.5 mph - N/A   Mostly Cloudy
9:50 PM 50.0 °F 48.2 °F 94% 29.90 in 3.0 mi Calm Calm - N/A   Scattered Clouds
9:54 PM 50.0 °F 48.9 °F 96% 29.91 in 1.5 mi Calm Calm - N/A   Scattered Clouds
10:07 PM 51.1 °F 48.9 °F 92% 29.91 in 0.8 mi Calm Calm - N/A   Mostly Cloudy
10:20 PM 50.0 °F 48.0 °F 93% 29.91 in 0.2 mi Calm Calm - N/A Fog Fog
10:54 PM 48.9 °F 46.9 °F 93% 29.91 in 0.2 mi Calm Calm - N/A Fog Fog
11:12 PM 48.0 °F 46.0 °F 93% 29.92 in 0.8 mi North 3.5 mph - N/A   Mist
11:35 PM 50.0 °F 48.0 °F 93% 29.93 in 0.2 mi North 4.6 mph - N/A Fog Fog
11:54 PM 48.9 °F 48.0 °F 97% 29.93 in 0.5 mi West 4.6 mph - N/A Fog Fog